CAPE
0 0 0 0 0 0 22 5 0 12 24 63 26 47 99 42 119 358 442 363 340 286 785 923 1297 1558 1393 1399 1642 1866 2084 2350 2378 2109 1641 1934 1754 2005 2001 2182 1705 1812 1771 1611
0 0 0 0 0 0 0 0 0 2 11 50 87 111 88 49 44 200 433 459 337 402 363 398 530 577 719 1740 2004 1893 2275 2216 2582 2292 2685 2415 1984 2053 1736 1584 2043 1824 1471 1470
0 0 0 0 0 0 0 0 0 3 8 1 36 82 53 63 76 78 141 327 325 296 343 529 696 711 898 1248 1716 1790 2351 2206 2442 2627 2646 1851 1921 1070 814 940 1113 810 401 284
0 0 0 0 0 0 0 0 0 0 0 2 0 0 27 19 2 58 38 97 175 187 282 484 666 897 962 1368 1725 2073 2321 2681 2895 2097 903 637 113 0 354 140 267 21 60 250
0 0 0 0 0 0 0 0 0 0 0 0 0 0 85 58 4 15 21 43 73 132 173 224 359 517 669 1375 1633 2458 2822 2506 1757 895 168 163 34 0 0 0 0 1 9 176
0 0 0 0 0 0 0 0 0 0 0 0 0 13 66 43 203 36 52 80 48 89 164 157 245 371 484 1077 1477 2447 2588 1342 743 418 214 56 0 1 0 43 22 79 19 2
0 0 0 0 0 0 0 0 0 0 0 0 0 1 36 50 37 125 60 2 56 132 256 311 238 374 531 1071 1587 2403 1805 1117 683 233 79 0 0 6 44 163 137 11 0 3
0 0 0 0 0 0 0 0 0 0 0 1 3 2 29 25 109 131 341 257 69 17 313 457 643 535 993 1323 1859 1733 1472 982 632 229 35 19 66 70 127 315 223 26 0 36
0 0 0 0 0 0 0 0 0 0 0 0 0 0 0 0 0 0 13 0 207 119 75 417 748 940 1283 1438 1706 1430 1289 1177 720 205 401 476 349 229 123 185 157 64 199 105
0 0 0 0 0 0 0 0 0 0 0 1 4 1 0 17 0 0 0 0 35 185 292 263 523 1174 1667 1589 1608 1188 1127 1336 560 383 565 580 264 180 275 218 118 152 140 166
0 0 0 0 0 0 0 0 0 0 0 0 5 3 4 5 0 0 0 0 0 19 298 733 758 1389 1811 1413 1448 807 899 1159 585 275 449 175 0 0 120 111 67 63 190 223
0 0 0 0 0 0 0 0 3 0 5 0 6 0 0 0 0 0 0 0 0 88 164 1143 1010 1660 1790 1440 1289 666 506 705 581 419 405 278 86 21 15 21 48 61 91 91
0 0 0 0 0 0 0 1 0 0 0 3 19 35 0 0 0 0 0 0 39 50 612 1456 1291 1210 1772 1593 1396 697 331 344 429 410 303 175 112 147 189 185 210 131 104 70
1 0 0 0 0 0 0 0 0 0 16 2 10 114 5 1 4 0 0 0 0 214 203 1348 1411 1295 1627 1669 1297 784 338 119 193 246 296 256 228 279 318 308 405 174 256 312
0 0 0 0 0 1 3 0 0 0 0 0 34 1 11 0 0 0 0 0 0 15 304 1118 1279 1484 1699 1712 1159 927 391 174 98 69 72 79 168 313 465 496 386 320 324 414
0 0 0 0 0 0 0 0 20 0 0 0 6 20 1 29 0 0 0 0 0 0 0 180 1491 1233 2154 1880 1278 773 378 355 87 176 151 170 259 356 434 603 699 528 550 399
15 0 0 0 0 0 0 0 1 22 17 1 8 65 141 11 0 0 0 0 0 0 0 9 634 1479 2342 1825 1289 636 517 350 171 309 269 299 352 393 515 612 544 554 354 331
41 26 1 0 2 29 0 13 34 36 20 1 49 0 4 12 0 0 0 0 0 0 1 20 440 1135 1858 1634 1175 1055 648 294 478 547 607 587 591 613 724 739 545 512 518 479
2 125 44 26 0 4 51 125 152 36 44 83 141 92 80 8 0 62 18 0 11 65 263 312 106 757 1790 1479 1179 1109 575 465 625 646 711 820 758 770 822 879 717 582 562 408
0 1 7 15 183 48 69 207 65 35 0 40 39 60 42 13 0 225 173 132 130 207 414 444 547 944 1818 1497 1355 1009 474 621 631 678 915 1020 951 965 921 896 681 712 616 369
0 17 39 98 79 0 51 87 28 0 0 43 19 7 6 6 11 199 245 154 211 321 701 994 1019 1332 1797 1448 1142 621 406 605 806 922 1033 999 1087 1079 956 957 876 821 463 42
82 130 18 0 2 0 147 268 45 279 7 57 53 35 22 8 6 26 68 244 191 299 672 1026 1369 1656 1592 1272 1010 411 551 834 1211 1139 1042 1116 1178 976 796 787 671 503 406 506
139 114 0 247 223 120 307 380 97 83 71 3 1 2 9 13 14 0 0 138 354 353 582 1024 1266 1488 1341 974 539 909 1225 1542 1678 1661 1551 1312 1284 1005 1019 813 405 623 643 550
269 87 186 3 0 0 13 12 23 27 0 0 0 0 0 7 16 39 59 395 599 381 662 697 1211 1417 873 1232 1476 1847 1963 1862 1867 1940 2119 1774 1535 1468 1239 767 911 774 686 272
53 0 0 169 4 14 0 1 1 5 0 0 0 0 1 51 121 222 277 723 832 621 646 352 831 787 400 189 150 304 1056 1533 2199 2282 2096 1708 1483 1187 903 163 81 349 0 0
43 24 69 17 0 0 0 0 0 0 0 0 0 0 13 146 381 850 1343 1166 1017 20 771 211 205 184 0 0 66 2 6 753 1219 1238 1140 1009 915 411 506 101 0 0 0 0
CIN
-0 -0 -0 -0 -0 -0 -4 -11 -0 -42 -37 -78 -66 -77 -52 -53 -13 -7 -8 -37 -25 -48 -10 -8 -16 -10 -9 -4 -8 -11 -11 -1 -3 -11 -25 -15 -11 -16 -16 -14 -17 -11 -14 -8
-0 -0 -0 -0 -0 -0 -0 -0 -2 -17 -2 -16 -26 -26 -11 -28 -46 -8 -3 -40 -32 -23 -81 -99 -70 -34 -23 -4 -10 -3 -6 -11 -6 -13 -5 -8 -9 -2 -13 -16 -7 -5 -2 -6
-0 -0 -0 -0 -0 -0 -0 -0 -0 -17 -3 -15 -10 -30 -192 -13 -6 -25 -11 -26 -31 -52 -90 -99 -84 -62 -21 -1 -3 -2 -3 -12 -6 -2 -5 -18 -7 -12 -12 -7 -3 -47 -65 -86
-0 -0 -0 -0 -0 -0 -0 -0 -0 -0 -4 -3 -0 -0 -79 -14 -7 -34 -58 -57 -16 -52 -64 -72 -66 -36 -16 -8 -5 -7 -1 -2 -4 -9 -31 -40 -242 -0 -99 -172 -145 -229 -217 -118
-0 -0 -0 -0 -0 -0 -0 -0 -0 -0 -0 -0 -0 -0 -25 -13 -11 -67 -46 -62 -31 -29 -44 -58 -67 -57 -21 -8 -10 -12 -1 -9 -33 -76 -232 -235 -311 -0 -0 -0 -0 -243 -158 -172
-0 -0 -0 -0 -0 -0 -0 -0 -0 -0 -0 -0 -0 -8 -36 -47 -9 -32 -14 -9 -3 -8 -20 -23 -36 -69 -38 -11 -12 -11 -24 -70 -107 -144 -215 -334 -0 -36 -0 -347 -232 -293 -106 -0
-0 -0 -0 -0 -0 -0 -0 -0 -1 -0 -0 -0 -0 -4 -20 -25 -36 -20 -100 -11 -8 -22 -4 -12 -21 -51 -57 -28 -7 -12 -66 -110 -132 -211 -328 -0 -0 -449 -372 -241 -228 -250 -0 -37
-0 -0 -0 -0 -0 -0 -0 -0 -0 -0 -0 -14 -20 -5 -41 -10 -8 -20 -20 -66 -21 -40 -36 -26 -3 -27 -35 -31 -16 -43 -92 -135 -160 -212 -377 -351 -336 -329 -265 -138 -161 -229 -0 -207
-0 -0 -0 -0 -0 -0 -0 -0 -0 -0 -0 -0 -1 -1 -0 -0 -0 -0 -14 -0 -11 -6 -19 -36 -7 -26 -42 -35 -43 -81 -87 -114 -157 -228 -187 -166 -188 -196 -214 -180 -192 -245 -126 -182
-0 -0 -0 -0 -0 -0 -0 -0 -0 -0 -0 -4 -7 -15 -0 -21 -0 -0 -0 -0 -5 -19 -7 -60 -8 -25 -44 -42 -47 -109 -87 -83 -166 -192 -173 -146 -186 -230 -161 -161 -200 -154 -143 -114
-0 -0 -0 -0 -0 -0 -0 -0 -0 -0 -0 -1 -5 -27 -14 -19 -3 -0 -0 -0 -0 -16 -12 -11 -17 -26 -47 -51 -43 -133 -108 -79 -158 -193 -161 -180 -0 -0 -188 -185 -199 -187 -80 -61
-0 -0 -1 -0 -0 -0 -0 -0 -5 -0 -5 -0 -15 -0 -0 -0 -0 -0 -0 -0 -0 -29 -30 -11 -19 -14 -42 -43 -42 -137 -167 -126 -138 -162 -167 -180 -231 -233 -196 -183 -157 -144 -107 -93
-0 -0 -0 -0 -3 -0 -0 -7 -0 -0 -1 -9 -5 -17 -0 -0 -0 -0 -0 -0 -19 -45 -11 -20 -16 -11 -27 -42 -45 -128 -172 -150 -132 -138 -178 -181 -209 -186 -149 -115 -66 -74 -78 -99
-3 -0 -0 -0 -0 -18 -0 -0 -0 -4 -5 -17 -7 -15 -78 -1 -2 -1 -0 -0 -0 -22 -28 -11 -13 -5 -24 -53 -85 -104 -148 -146 -123 -138 -164 -171 -167 -148 -105 -59 -11 -27 -4 -2
-0 -1 -0 -0 -0 -4 -27 -22 -0 -0 -0 -2 -10 -7 -57 -0 -1 -6 -0 -0 -0 -43 -20 -8 -8 -12 -23 -49 -91 -107 -139 -145 -104 -149 -158 -142 -127 -104 -80 -38 -18 -16 -5 -2
-0 -8 -0 -0 -0 -0 -0 -0 -18 -7 -0 -0 -31 -10 -1 -53 -0 -0 -0 -0 -0 -0 -0 -47 -11 -12 -12 -41 -82 -129 -146 -144 -172 -135 -140 -131 -107 -86 -65 -18 -5 -15 -11 -10
-22 -0 -0 -0 -0 -0 -0 -0 -4 -18 -28 -13 -14 -5 -57 -18 -0 -0 -0 -0 -0 -0 -0 -35 -7 -11 -20 -52 -84 -180 -150 -160 -160 -116 -115 -118 -99 -77 -46 -36 -39 -23 -19 -20
-6 -22 -4 -0 -1 -3 -0 -3 -11 -4 -23 -25 -31 -13 -89 -88 -0 -0 -0 -0 -0 -0 -93 -109 -11 -5 -20 -55 -88 -104 -154 -175 -112 -96 -92 -97 -73 -55 -42 -39 -36 -16 -18 -14
-102 -45 -1 -6 -0 -6 -8 -10 -53 -101 -5 -17 -15 -38 -22 -28 -0 -58 -137 -0 -181 -94 -54 -51 -62 -5 -15 -33 -60 -100 -141 -129 -79 -80 -85 -76 -64 -56 -41 -20 -8 -8 -7 -14
-0 -2 -1 -3 -3 -4 -11 -20 -60 -177 -0 -96 -125 -57 -21 -98 -0 -45 -141 -108 -53 -54 -41 -36 -19 -21 -12 -26 -37 -64 -115 -75 -76 -84 -83 -72 -60 -32 -22 -7 -7 -7 -14 -19
-0 -13 -9 -12 -17 -0 -17 -44 -119 -0 -0 -126 -81 -128 -67 -101 -27 -62 -56 -61 -54 -54 -32 -26 -23 -21 -29 -30 -39 -100 -99 -49 -46 -52 -52 -48 -26 -6 -5 -5 -9 -15 -22 -58
-57 -13 -52 -0 -6 -0 -28 -32 -74 -9 -67 -49 -38 -48 -20 -13 -21 -47 -49 -19 -22 -27 -29 -24 -17 -26 -39 -37 -27 -78 -53 -36 -24 -36 -29 -14 -8 -9 -7 -7 -14 -27 -36 -31
-7 -65 -0 -23 -107 -203 -46 -91 -84 -40 -62 -44 -10 -65 -54 -58 -58 -8 -0 -42 -14 -15 -5 -13 -25 -27 -41 -50 -32 -11 -13 -25 -31 -15 -4 -7 -4 -8 -13 -15 -27 -25 -19 -11
-72 -121 -35 -140 -0 -0 -3 -130 -217 -195 -11 -0 -0 -0 -16 -95 -102 -90 -84 -36 -12 -25 -1 -13 -11 -17 -26 -8 -21 -30 -42 -57 -44 -34 -13 -8 -7 -18 -17 -22 -10 -8 -8 -21
-46 -0 -0 -22 -101 -6 -0 -132 -68 -184 -7 -0 -0 -0 -63 -97 -85 -75 -58 -19 -17 -14 -55 -113 -70 -116 -201 -136 -135 -25 -5 -2 -4 -4 -1 -8 -10 -18 -21 -69 -42 -52 -0 -0
-34 -40 -14 -67 -0 -1 -0 -0 -0 -0 -0 -0 -0 -0 -114 -66 -28 -13 -14 -30 -62 -39 -119 -222 -224 -283 -0 -0 -69 -95 -77 -35 -5 -9 -4 -3 -3 -17 -14 -107 -0 -0 -0 -0
Wind_Speed
25 29 27 28 28 31 28 28 0 5 10 14 9 14 16 17 16 16 16 16 17 19 20 19 19 20 20 18 16 15 14 12 11 10 9 8 6 5 4 3 3 3 4 5
22 28 28 27 28 31 31 15 3 8 2 4 7 9 14 13 12 13 14 14 15 17 17 19 19 19 18 18 17 16 15 14 13 12 11 9 8 6 4 3 4 6 7 9
24 26 31 27 24 25 28 24 15 3 3 11 7 6 1 19 7 10 10 10 13 14 15 17 19 19 17 16 16 16 15 15 14 13 12 11 9 8 8 14 13 15 16 16
32 24 28 28 23 19 24 12 32 13 4 8 4 13 5 15 4 4 7 8 12 14 14 15 18 17 15 14 13 14 14 13 14 15 16 16 16 11 13 12 16 19 19 18
20 33 24 24 27 22 14 17 20 11 8 10 4 2 2 7 6 4 10 11 12 13 14 14 16 13 12 12 12 11 12 12 13 15 17 19 19 19 18 17 16 16 10 11
34 24 16 15 21 14 18 17 8 3 4 20 13 8 2 8 10 7 9 11 12 11 12 11 12 13 11 9 9 10 10 11 12 14 17 19 19 19 17 18 17 13 19 16
16 24 9 12 7 12 5 3 3 3 5 7 8 11 6 3 6 4 6 33 16 9 11 9 11 12 10 8 7 6 7 8 10 12 16 19 20 19 17 14 15 19 17 19
17 16 11 10 12 7 7 5 3 0 4 2 3 5 8 2 4 7 11 21 12 13 12 10 10 12 10 7 5 3 3 5 8 10 14 19 21 20 17 20 18 19 20 20
15 19 11 12 15 10 8 11 20 28 28 20 9 9 9 9 10 13 11 12 9 7 14 11 11 11 11 8 6 3 2 2 5 8 12 16 18 19 19 19 19 18 20 21
16 19 12 16 16 21 17 7 17 22 21 23 16 17 13 1 5 7 8 11 12 6 14 16 12 12 11 9 7 4 3 1 3 6 9 12 15 17 18 18 18 19 19 19
41 17 13 13 19 17 16 21 18 22 16 18 19 15 10 5 6 8 8 8 11 15 6 7 7 10 12 10 8 5 5 3 2 4 7 13 17 17 17 18 17 18 19 19
42 27 29 20 12 12 15 16 20 23 23 24 26 21 4 6 6 6 10 13 12 16 26 8 7 8 11 10 8 7 6 5 3 3 6 11 15 16 18 18 18 19 19 19
35 31 27 24 15 13 27 21 12 19 25 26 22 15 6 6 6 8 9 14 11 7 10 2 5 9 11 10 10 8 7 6 4 2 5 9 13 15 16 17 18 18 18 18
36 33 31 32 26 11 14 21 21 31 25 25 18 11 11 9 8 7 10 10 13 9 6 5 6 9 13 12 11 9 8 6 4 3 4 8 11 13 16 16 16 17 16 17
37 32 34 35 38 37 35 14 21 29 36 34 23 12 20 14 14 13 14 17 18 16 12 8 8 8 14 13 11 9 7 6 4 3 8 9 11 12 14 15 16 16 17 19
24 31 30 36 35 34 36 39 16 16 26 35 30 29 15 6 7 12 18 19 22 21 19 17 8 10 11 13 12 9 7 6 5 4 6 9 10 11 13 13 14 15 18 21
25 30 32 37 33 36 40 36 39 25 20 20 31 27 6 7 16 21 21 22 25 26 24 22 10 9 11 12 11 10 8 6 6 6 7 9 9 12 12 12 13 16 20 21
25 31 30 36 34 39 35 40 34 35 27 21 18 21 16 21 22 21 19 24 27 24 22 21 10 7 7 9 10 8 7 7 6 6 7 9 10 11 11 12 15 16 18 20
20 21 24 33 33 31 30 30 20 21 30 27 27 25 26 16 22 24 27 20 21 21 20 16 12 4 5 9 8 7 6 7 6 6 8 9 11 12 13 14 16 17 18 20
14 8 40 28 30 39 31 22 20 30 35 21 24 23 19 19 22 18 20 20 20 22 21 17 11 5 5 8 7 6 7 7 6 6 8 10 11 13 15 16 16 16 19 21
37 24 36 28 31 35 32 24 14 27 45 40 23 19 17 19 19 16 15 17 19 18 17 14 9 3 3 6 7 7 7 6 6 7 10 12 13 14 16 17 17 17 20 26
43 34 38 37 36 38 32 15 17 12 9 12 13 15 16 18 18 21 23 17 16 15 12 9 7 3 1 3 4 7 6 7 9 11 14 16 15 15 16 16 19 20 22 22
33 24 29 25 18 25 13 2 2 8 11 14 16 17 18 21 24 28 31 30 13 11 10 6 4 4 2 3 4 4 8 12 16 18 17 18 18 17 18 19 20 20 20 19
22 17 22 22 16 15 22 9 14 16 19 19 21 22 25 28 31 33 32 29 14 14 9 5 6 1 3 5 6 9 14 17 20 20 20 20 19 20 20 20 22 21 22 21
28 21 29 20 17 17 10 15 17 20 22 22 25 28 31 33 34 35 31 22 14 19 7 15 12 9 14 17 20 11 18 22 26 24 21 21 20 21 21 24 20 16 22 24
18 16 12 13 16 18 18 18 17 21 24 25 27 29 31 33 33 27 16 13 14 13 12 14 14 14 15 21 23 22 20 18 21 22 21 20 22 25 18 18 20 25 23 23
Wind_Direction
166 169 173 171 168 190 186 211 127 139 120 114 79 121 131 130 116 121 119 117 122 124 117 116 118 120 126 118 105 102 95 74 67 65 84 80 79 84 94 94 99 65 26 28
157 175 176 175 175 193 203 282 308 163 52 38 75 100 138 127 120 125 131 125 127 121 112 119 113 121 110 110 104 103 92 85 90 89 77 73 63 67 72 84 74 55 40 39
169 171 186 181 170 181 198 186 279 276 326 308 323 86 52 232 123 121 134 134 136 131 123 125 126 127 117 104 99 96 90 90 88 78 66 61 70 57 49 29 41 30 15 7
185 172 182 186 178 165 184 168 221 179 129 170 290 193 242 174 168 153 157 154 152 143 136 134 137 133 124 108 101 95 90 83 71 54 40 26 18 29 22 22 10 358 359 1
178 193 181 184 189 181 174 167 180 170 181 187 202 264 152 193 212 217 181 171 163 155 153 148 146 136 130 111 106 88 87 65 52 42 29 24 15 8 12 12 8 7 17 16
237 250 233 179 184 169 166 285 167 307 197 211 196 177 286 287 234 232 274 191 170 167 163 163 155 146 137 117 107 95 73 56 47 42 39 32 27 16 8 2 5 17 5 8
242 184 239 252 197 170 183 273 304 310 196 198 186 200 208 199 236 212 138 204 177 173 173 171 165 160 153 139 123 86 71 61 48 38 33 25 20 18 15 16 9 2 7 4
239 239 216 230 186 212 230 216 262 62 354 315 310 332 180 346 138 172 176 187 183 185 181 180 176 170 163 160 155 125 87 52 43 32 22 17 16 18 18 5 2 359 356 356
228 251 218 212 245 226 247 252 199 279 291 309 321 321 317 324 315 305 316 296 235 205 178 184 180 177 173 176 183 193 161 44 28 25 16 14 17 18 12 4 359 359 357 355
242 257 222 243 251 255 261 266 278 278 298 300 303 309 304 265 349 347 339 310 302 203 196 182 181 183 178 183 188 200 206 217 14 18 15 14 13 13 13 8 2 357 356 356
230 248 242 224 243 239 251 268 275 276 286 301 305 320 32 32 26 35 16 0 330 307 273 226 192 189 181 181 187 199 209 216 303 4 10 8 5 7 9 6 3 357 356 356
236 261 261 223 231 209 258 256 273 274 285 288 289 312 359 5 11 357 353 353 353 319 292 195 201 199 187 186 196 204 213 226 259 333 355 2 4 6 3 2 360 357 354 354
239 250 257 256 236 228 254 263 250 274 279 282 290 298 349 9 13 5 7 355 1 356 342 213 240 218 197 199 204 207 208 214 225 299 350 359 0 1 360 358 357 357 355 353
240 246 252 255 258 233 240 258 263 269 275 282 281 308 302 320 310 346 348 4 360 345 324 261 260 232 204 199 195 196 197 209 222 242 326 344 350 356 357 356 357 356 354 352
241 250 252 255 258 258 259 248 265 269 269 276 280 261 291 302 294 325 323 333 338 341 324 285 247 238 212 204 200 204 209 214 253 275 331 343 350 353 355 354 355 354 352 349
240 248 254 259 262 262 266 265 247 257 271 269 277 273 290 274 342 309 316 324 330 332 323 312 252 231 218 208 206 209 215 232 277 297 316 329 340 347 349 351 352 350 347 346
244 248 254 259 262 266 265 267 262 276 268 274 278 288 315 300 288 302 317 324 326 327 321 314 285 261 227 208 207 216 221 252 246 278 310 327 334 339 341 345 346 347 347 347
257 253 252 256 262 261 266 259 268 270 273 266 278 277 289 292 302 310 318 319 325 329 324 317 313 291 231 202 205 214 233 234 236 262 301 318 326 331 333 335 338 341 344 345
287 268 258 252 256 269 270 272 285 294 277 283 290 273 278 316 304 316 319 322 326 332 335 329 323 286 213 192 199 209 222 214 234 271 297 312 320 323 325 326 331 335 336 341
248 231 238 238 259 261 272 280 284 292 277 303 308 292 282 289 301 318 334 336 332 328 333 334 333 320 188 184 183 198 199 210 235 274 299 314 317 318 320 322 325 333 337 336
253 265 265 280 278 277 278 293 298 274 264 272 288 294 304 320 318 340 350 337 332 336 336 340 339 332 159 173 181 192 202 231 265 299 311 314 315 316 318 321 327 327 330 333
264 267 270 277 275 276 281 288 270 306 309 307 301 305 297 303 325 336 339 327 323 328 339 347 347 18 115 185 202 205 230 269 302 312 316 318 317 316 321 320 324 323 329 329
266 268 267 280 287 300 320 316 275 297 305 313 313 316 314 311 316 318 319 319 303 312 316 329 323 316 290 205 233 286 310 316 321 324 322 320 321 323 320 316 319 322 325 326
276 298 280 274 269 286 295 302 306 303 306 308 310 310 309 310 310 313 315 313 286 277 247 258 273 311 308 290 297 293 303 314 319 322 324 324 321 321 318 316 318 322 328 339
270 285 277 286 288 273 293 306 308 305 306 312 307 311 308 311 312 311 310 307 302 302 36 356 33 20 351 317 338 319 323 337 325 329 331 325 323 320 318 333 325 348 339 338
328 289 288 297 282 302 345 324 316 309 311 313 313 314 315 315 318 318 317 313 310 314 351 338 324 325 320 322 325 321 328 334 331 332 331 327 327 328 331 336 331 338 340 342